Location: Aragoneses
(41.0275°N, 4.3847°W)
Time: 09:25:30
(UTC+00:00)

ISS - Pass Details

Date: 20 February 2026
Orbit: 416 x 426 km, 51.6° (Epoch: 9 March)

Event Time Altitude Azimuth Distance (km) Brightness Sun altitude
Exits shadow 05:31:11 19° 347° (NNW) 1,080 -1.8 -18.4°
Drops below altitude 10° 05:33:30 10° 31° (NNE) 1,495 -0.6 -18.0°
Sets 05:36:02 0° 50° (NE) 2,358 0.9 -17.5°
